Tracking 32579 objects as of 16-Dec-2025
HD Live streaming from Space Station
objects crossing your sky now

FENGYUN 1C DEB

Track FENGYUN 1C DEB now!
10-day predictions


NORAD ID: 31032
Int'l Code: 1999-025BEA
Perigee: 792.2 km
Apogee: 994.4 km
Inclination: 99.4 °
Period: 102.7 minutes
Semi major axis: 7264 km
RCS: 0.0169 m2 (small)
Launch date: May 10, 1999
Source: People's Republic of China (PRC)
Launch site: Taiyaun Space Center, China (TSC)

Note: This is SATELLITE DEBRIS
Your satellite tracking list
Your tracking list is empty




NASA's NSSDC Master Catalog

Two Line Element Set (TLE):
1 31032U 99025BEA 25349.79812038  .00001720  00000-0  10600-2 0  9994
2 31032  99.3993 358.7198 0139180 187.6892 352.2704 14.02211133950248
Source of the keplerian elements: AFSPC